CZ-11H R/B (54022 NORAD) Tracking and Keplerian Element Data

This shows tracking and keplerian element data for the satellite.

Feedback or suggestion? Click here.




ElementValue
Catalog54022
NameCZ-11H R/B
Epoch Orbit415
Epoch Day308.131889
Epoch Year2022
RAAN71.8268
Inclination56.1434
Eccentricity0.0338801
Argument of Perigee8.2549
Mean Anonmoly352.3859
Mean Motion15.07156125
Decay Rate0.00038682
L11 54022U 22126C 22308.13188900 .00038682 00000+0 64330-3 0 9996
L22 54022 56.1434 71.8268 0338801 8.2549 352.3859 15.07156125 4159



Live tracking and technical data element details for CZ-11H R/B (NORAD 54022). CZ-11H R/B can be tracked NOW for your location showing map with azimuth and elevation plus other details from your city location.







IsCatalogInMostPopularTable: catalog: 54022, numindb: 14
Update: records affected: 1



GetName: 54022 CZ-11H R/B

Hit Count: updated at: Sun, 11 Jun 2023 01:18:09 GMT